"2010-03-04 00:00:00",1731159,3.67,36.51,9.27,1.031,11.72,104.1254,9.83,11.13,31.87,0,110.4,13.29,10.62,358.5
"2010-03-04 00:00:30",1731160,3.704,40.1,8.48,1.113,11.71,104.1257,9.84,11.06,31.62,0,110.4,13.29,10.62,2.1
"2010-03-04 00:01:00",1731161,1.47,20.49,2.515,0.146,7.291,104.1266,9.84,10.83,31.4,0,110.4,13.32,10.62,342.5
"2010-03-04 00:01:30",1731162,1.554,15.26,2.937,0.148,6.625,104.1261,9.84,10.82,31.43,0,110.4,13.32,10.62,337.3
"2010-03-04 00:02:00",1731163,1.525,16.94,2.638,0.102,6.562,104.1108,9.8,10.82,31.42,0,110.4,13.32,10.58,338.9
"2010-03-04 00:02:30",1731164,1.775,20.78,4.9,0.553,7.42,104.1013,9.77,10.93,31.49,0,110.4,13.29,10.56,342.8
"2010-03-04 00:03:00",1731165,2.688,30.07,6.906,1.388,9.14,104.0973,9.76,10.85,31.49,0,110.4,13.29,10.55,352.1
"2010-03-04 00:03:30",1731166,1.434,26.06,2.913,0.248,8.27,104.0934,9.75,10.92,31.53,0,110.4,13.33,10.54,348.1
"2010-03-04 00:04:00",1731167,2.128,31.69,7.9,1.157,9.61,104.0934,9.75,10.91,31.42,0,110.4,13.3,10.54,353.7
"2010-03-04 00:04:30",1731168,2.538,30.36,7.795,1.454,9.92,104.0934,9.75,10.93,31.44,0,110.4,13.3,10.54,352.4
"2010-03-04 00:05:00",1731169,3.209,34.32,7.336,1.311,11.7,104.0911,9.75,11.05,31.56,0,110.3,13.3,10.53,356.3
"2010-03-04 00:05:30",1731170,2.107,27.48,5.321,1.135,9.34,104.0674,9.69,10.89,31.43,0,110.3,13.3,10.47,349.5
"2010-03-04 00:06:00",1731171,1.233,26.02,2.81,0.099,6.886,104.0595,9.67,10.75,31.56,0,110.3,13.34,10.45,348.0
"2010-03-04 00:06:30",1731172,1.501,22.53,3.465,0.143,6.774,104.0595,9.67,10.73,31.85,0,110.3,13.34,10.45,344.5
"2010-03-04 00:07:00",1731173,2.339,22.59,5.876,1.227,9.07,104.0469,9.63,10.78,31.99,0,110.3,13.31,10.42,344.6
"2010-03-04 00:07:30",1731174,2.134,20.02,9.68,1.383,9.7,104.0266,9.58,10.83,32.17,0,110.3,13.31,10.37,342.0
"2010-03-04 00:08:00",1731175,1.187,15.83,3.574,0.282,7.692,104.0254,9.58,10.68,32.01,0,110.3,13.34,10.36,337.8
"2010-03-04 00:08:30",1731176,1.572,19.09,4.809,0.955,9.14,104.0108,9.54,10.79,32.12,0,110.3,13.31,10.33,341.1
"2010-03-04 00:09:00",1731177,1.445,18.26,4.473,0.939,8.71,103.9975,9.51,10.7,32.11,0,110.3,13.31,10.29,340.3
"2010-03-04 00:09:30",1731178,2.486,24.83,7.916,1.326,10.3,103.998,9.51,10.65,32.14,0,110.3,13.31,10.29,346.8
"2010-03-04 00:10:00",1731179,2.654,22.7,8.84,1.253,11.46,103.9847,9.47,10.81,32.39,0,110.3,13.31,10.26,344.7
"2010-03-04 00:10:30",1731180,0.717,10.76,7.18,0.193,7.788,103.9733,9.45,10.58,32.26,0,110.3,13.35,10.23,332.8
"2010-03-04 00:11:00",1731181,1.268,18.57,4.836,0.243,6.875,103.9752,9.45,10.51,32.3,0,110.3,13.35,10.24,340.6
"2010-03-04 00:11:30",1731182,1.983,20.47,8.83,1.372,9.17,103.9552,9.4,10.62,32.53,0,110.3,13.31,10.18,342.5
"2010-03-04 00:12:00",1731183,1.234,10.75,6.499,1.136,8.39,103.9565,9.4,10.63,32.55,0,110.3,13.32,10.19,332.8
"2010-03-04 00:12:30",1731184,1.339,12.85,5.201,0.147,7.145,103.9411,9.36,10.43,32.46,0,110.3,13.35,10.15,334.9
"2010-03-04 00:13:00",1731185,2.255,22.27,7.188,1.25,8.67,103.9253,9.32,10.4,32.53,0,110.3,13.32,10.11,344.3
"2010-03-04 00:13:30",1731186,1.828,21.66,6.412,1.09,9.14,103.912,9.29,10.5,32.69,0,110.3,13.32,10.07,343.7
"2010-03-04 00:14:00",1731187,1.802,21.26,5.416,1.042,8.45,103.8917,9.24,10.33,32.61,0,110.3,13.32,10.02,343.3
"2010-03-04 00:14:30",1731188,2.412,23.59,6.714,1.289,10.11,103.8827,9.21,10.45,32.81,0,110.3,13.32,10.00,345.6
"2010-03-04 00:15:00",1731189,2.004,20.67,8.28,1.443,9.79,103.859,9.15,10.38,32.84,0,110.3,13.32,9.94,342.7
"2010-03-04 00:15:30",1731190,2.363,22.87,6.202,1.236,8.95,103.8477,9.12,10.29,32.88,0,110.3,13.32,9.91,344.9
"2010-03-04 00:16:00",1731191,3.227,27.33,6.946,1.295,10.14,103.824,9.06,10.34,32.98,0,110.3,13.32,9.85,349.3
"2010-03-04 00:16:30",1731192,1.145,15.71,4.834,0.246,7.284,103.817,9.05,10.18,32.97,0,110.2,13.35,9.83,337.7
"2010-03-04 00:17:00",1731193,1.071,15.74,3.423,0.267,7.187,103.7936,8.99,10.13,32.97,0,110.2,13.36,9.77,337.7
"2010-03-04 00:17:30",1731194,1.212,17.19,2.215,0.144,7.343,103.7837,8.96,10.12,33.06,0,110.3,13.36,9.74,339.2
"2010-03-04 00:18:00",1731195,1.961,19.93,8.34,1.26,9.83,103.7572,8.89,10.16,33.22,0,110.2,13.32,9.68,341.9
"2010-03-04 00:18:30",1731196,1.211,14.77,3.517,0.14,7.677,103.7457,8.86,10.05,33.26,0,110.2,13.36,9.65,336.8
"2010-03-04 00:19:00",1731197,1.215,15.49,4.936,0.514,8.19,103.7266,8.81,10.1,33.42,0,110.2,13.32,9.60,337.5
"2010-03-04 00:19:30",1731198,2.21,17.41,9.57,1.306,9.79,103.7186,8.79,9.96,33.35,0,110.2,13.32,9.58,339.4
"2010-03-04 00:20:00",1731199,2.159,18.22,7.435,1.117,10.04,103.7074,8.77,10,33.44,0,110.2,13.33,9.55,340.2
"2010-03-04 00:20:30",1731200,2.596,22.34,9.02,1.394,10.34,103.6932,8.73,10.12,33.66,0,110.2,13.33,9.51,344.3
"2010-03-04 00:21:00",1731201,1.959,17.5,8.29,1.324,8.93,103.6849,8.71,9.85,33.47,0,110.2,13.33,9.49,339.5
"2010-03-04 00:21:30",1731202,1.4,17.04,3.266,0.204,7.001,103.6585,8.64,9.78,33.41,0,110.2,13.37,9.42,339.0
"2010-03-04 00:22:00",1731203,0.982,11.6,4.222,0.158,7.205,103.6504,8.62,9.75,33.43,0,110.2,13.37,9.40,333.6
"2010-03-04 00:22:30",1731204,2.206,20.04,8.48,1.304,9.32,103.6225,8.55,9.83,33.61,0,110.2,13.34,9.33,342.0
"2010-03-04 00:23:00",1731205,1.275,16.43,3.542,0.193,7.459,103.6106,8.52,9.71,33.68,0,110.2,13.38,9.30,338.4
"2010-03-04 00:23:30",1731206,1.334,16.39,2.847,0.145,7.501,103.5884,8.46,9.67,33.79,0,110.2,13.38,9.24,338.4
"2010-03-04 00:24:00",1731207,2.801,23.96,7.913,1.325,10.64,103.5759,8.43,9.69,33.93,0,110.2,13.35,9.21,346.0
"2010-03-04 00:24:30",1731208,2.432,23.11,6.946,1.267,10.45,103.5545,8.37,9.75,34.14,0,110.2,13.35,9.16,345.1
"2010-03-04 00:25:00",1731209,1.422,16.45,3.639,0.767,7.845,103.5336,8.32,9.5,33.98,0,110.2,13.35,9.10,338.5
"2010-03-04 00:25:30",1731210,2.269,20.53,8.5,1.363,8.75,103.5206,8.29,9.46,34.05,0,110.2,13.35,9.07,342.5
"2010-03-04 00:26:00",1731211,2.716,24.14,7.949,1.424,9.76,103.4978,8.23,9.6,34.25,0,110.2,13.35,9.01,346.1
"2010-03-04 00:26:30",1731212,2.338,21.9,6.794,1.25,9.45,103.4854,8.2,9.43,34.25,0,110.2,13.35,8.98,343.9
"2010-03-04 00:27:00",1731213,2.009,21.08,6.768,1.196,9.39,103.4586,8.13,9.47,34.45,0,110.2,13.35,8.91,343.1
"2010-03-04 00:27:30",1731214,1.31,15.97,2.327,0.438,7.34,103.4507,8.11,9.29,34.39,0,110.2,13.35,8.89,338.0
"2010-03-04 00:28:00",1731215,1.553,17.32,5.872,0.931,8.37,103.4256,8.05,9.42,34.59,0,110.2,13.35,8.83,339.3
"2010-03-04 00:28:30",1731216,3.46,25.8,6.245,1.011,11.54,103.4189,8.03,9.4,34.59,0,110.2,13.35,8.81,347.8
"2010-03-04 00:29:00",1731217,3.133,26.47,8.03,1.201,10.6,103.3953,7.968,9.3,34.66,0,110.2,13.35,8.75,348.5
"2010-03-04 00:29:30",1731218,1.401,16.2,2.137,0.125,7.413,103.3894,7.953,9.12,34.81,0,110.2,13.39,8.73,338.2
"2010-03-04 00:30:00",1731219,1.405,17.52,1.759,0.115,7.232,103.3678,7.898,9.09,34.97,0,110.1,13.36,8.68,339.5
"2010-03-04 00:30:30",1731220,1.761,18.79,5.454,0.822,8.24,103.3695,7.902,9.21,35.25,0,110.1,13.36,8.68,340.8
"2010-03-04 00:31:00",1731221,2.767,24.52,6.688,1.306,10.38,103.3517,7.856,9.29,35.51,0,110.1,13.36,8.64,346.5
"2010-03-04 00:31:30",1731222,2.538,22.07,5.853,1.231,9.34,103.3484,7.848,9.02,35.35,0,110.1,13.35,8.63,344.1
"2010-03-04 00:32:00",1731223,1.555,17.88,2.103,0.181,7.327,103.3336,7.81,8.96,35.41,0,110.1,13.39,8.59,339.9
"2010-03-04 00:32:30",1731224,2.97,25.63,7.257,1.324,10.27,103.3184,7.771,9.09,35.68,0,110.1,13.35,8.55,347.6
"2010-03-04 00:33:00",1731225,3.28,27.13,6.181,1.244,11.28,103.3082,7.745,9.13,35.81,0,110.1,13.35,8.52,349.1
"2010-03-04 00:33:30",1731226,1.478,17.52,4.445,0.697,7.888,103.2848,7.685,8.83,35.6,0,110.1,13.35,8.46,339.5
"2010-03-04 00:34:00",1731227,1.08,13.6,3.312,0.147,7.278,103.2837,7.683,8.8,35.65,0,110.1,13.39,8.46,335.6
"2010-03-04 00:34:30",1731228,0.862,7.973,5.627,0.083,7.367,103.2557,7.611,8.77,35.64,0,110.1,13.39,8.39,330.0
"2010-03-04 00:35:00",1731229,2.513,10.25,8.05,1.361,10.56,103.2498,7.596,8.83,35.58,0,110.1,13.36,8.37,332.2
"2010-03-04 00:35:30",1731230,2.446,8.62,7.47,1.332,10.62,103.2213,7.523,8.95,35.53,0,110.1,13.36,8.30,330.6
"2010-03-04 00:36:00",1731231,2.035,4.86,9.19,1.181,8.97,103.2168,7.512,8.71,35.18,0,110.1,13.36,8.29,326.9
"2010-03-04 00:36:30",1731232,1.128,358.5,4.365,0.135,7.294,103.1967,7.46,8.63,34.82,0,110.1,13.4,8.24,320.5
"2010-03-04 00:37:00",1731233,1.122,0.481,4.428,0.464,7.346,103.1832,7.426,8.64,34.98,0,110.1,13.36,8.20,322.5
"2010-03-04 00:37:30",1731234,3.105,6.219,6.696,1.358,11.05,103.1742,7.403,8.8,35.7,0,110.1,13.36,8.18,328.2
"2010-03-04 00:38:00",1731235,2.898,2.771,8.04,1.261,10.4,103.1493,7.339,8.67,34.32,0,110.1,13.37,8.12,324.8
"2010-03-04 00:38:30",1731236,1.786,352,2.631,0.146,7.571,103.1488,7.338,8.5,32.3,0,110.1,13.4,8.12,314.0
"2010-03-04 00:39:00",1731237,2.064,348.9,1.708,0.137,7.428,103.1222,7.27,8.47,28.79,0,110.1,13.4,8.05,310.9
"2010-03-04 00:39:30",1731238,3.172,352,6.401,1.241,9.3,103.1166,7.256,8.54,27.39,0,110.1,13.37,8.03,314.0
"2010-03-04 00:40:00",1731239,2.296,346.8,0.657,0.043,7.441,103.1195,7.263,8.57,26.48,0,110.1,13.41,8.04,308.8
"2010-03-04 00:40:30",1731240,3.5,355.4,7,1.339,9.9,103.1112,7.242,8.45,25.83,0,110.1,13.37,8.02,317.4
"2010-03-04 00:41:00",1731241,2.316,349.3,3.533,0.53,8.39,103.0953,7.201,8.55,25.84,0,110.1,13.38,7.98,311.3
"2010-03-04 00:41:30",1731242,4.007,356.8,6.064,1.156,10.6,103.1011,7.216,8.52,25.89,0,110.1,13.37,7.99,318.8
"2010-03-04 00:42:00",1731243,3.687,356.8,6.762,1.325,10.69,103.1046,7.225,8.49,25.73,0,110.1,13.38,8.00,318.8
"2010-03-04 00:42:30",1731244,2.047,347.3,1.272,0.109,7.61,103.109,7.236,8.29,25.47,0,110.1,13.41,8.01,309.3
"2010-03-04 00:43:00",1731245,2.417,346.9,3.9,0.793,7.681,103.1068,7.231,8.35,25.35,0,110.1,13.38,8.01,308.9
"2010-03-04 00:43:30",1731246,3.2,349.7,6.272,1.289,8.99,103.1024,7.219,8.32,24.77,0,110.1,13.38,8.00,311.7
"2010-03-04 00:44:00",1731247,2.177,345.2,0.756,0.019,7.007,103.0965,7.204,8.24,24.5,0,110.1,13.41,7.98,307.2
"2010-03-04 00:44:30",1731248,2.107,345.5,0.84,0.028,7.191,103.0832,7.17,8.23,24.41,0,110.1,13.42,7.95,307.5
"2010-03-04 00:45:00",1731249,3.728,352.7,6.497,1.29,10.73,103.0826,7.169,8.45,24.51,0,110.1,13.38,7.95,314.7
"2010-03-04 00:45:30",1731250,4.3,353.8,6.094,1.008,11.62,103.0826,7.169,8.5,24.55,0,110,13.38,7.95,315.8
"2010-03-04 00:46:00",1731251,2.987,346.4,5.483,1.176,9.42,103.0826,7.169,8.38,24.71,0,110.1,13.38,7.95,308.4
"2010-03-04 00:46:30",1731252,3.107,345.2,5.979,1.271,9,103.0826,7.169,8.33,24.81,0,110.1,13.38,7.95,307.2
"2010-03-04 00:47:00",1731253,3.179,346.6,6.627,1.262,8.84,103.0826,7.169,8.24,24.61,0,110.1,13.38,7.95,308.6
"2010-03-04 00:47:30",1731254,2.724,344.5,5.621,0.97,8.45,103.0826,7.169,8.32,24.45,0,110,13.38,7.95,306.5
"2010-03-04 00:48:00",1731255,2.276,341.9,0.586,0.037,7.084,103.0826,7.169,8.2,24.07,0,110,13.41,7.95,303.9
"2010-03-04 00:48:30",1731256,2.672,343.6,4.831,0.916,8.1,103.0826,7.169,8.2,24,0,110,13.38,7.95,305.6
"2010-03-04 00:49:00",1731257,4.058,350.4,6.814,1.227,11.05,103.0826,7.169,8.37,24.95,0,110,13.38,7.95,312.4
"2010-03-04 00:49:30",1731258,4.343,351.8,6.897,1.081,11.73,103.0826,7.169,8.49,26.31,0,110,13.38,7.95,313.8
"2010-03-04 00:50:00",1731259,3.229,348.6,7.261,1.265,10.08,103.0826,7.169,8.39,26.63,0,110,13.38,7.95,310.6
"2010-03-04 00:50:30",1731260,3.667,352.2,6.879,1.207,9.55,103.0818,7.167,8.31,27.03,0,110,13.37,7.94,314.2
"2010-03-04 00:51:00",1731261,3.487,350.8,6.443,1.153,9.15,103.0812,7.165,8.3,27.79,0,110,13.38,7.94,312.8
"2010-03-04 00:51:30",1731262,2.574,346.3,0.899,0.062,7.004,103.0759,7.151,8.19,27.96,0,110,13.41,7.93,308.3
"2010-03-04 00:52:00",1731263,2.816,341.7,1.831,0.086,7.027,103.0779,7.157,8.2,28.78,0,110,13.41,7.93,303.7
"2010-03-04 00:52:30",1731264,3.655,349.1,6.92,1.322,9.43,103.0767,7.154,8.33,30.87,0,110,13.38,7.93,311.1
"2010-03-04 00:53:00",1731265,3.987,352.7,6.851,1.349,10.33,103.0747,7.149,8.34,31.6,0,110,13.38,7.93,314.7
"2010-03-04 00:53:30",1731266,4.752,355.7,6.071,1.138,11.84,103.0731,7.144,8.46,32.34,0,110,13.38,7.92,317.7
"2010-03-04 00:54:00",1731267,4.846,356.5,4.784,0.988,12.14,103.0705,7.138,8.47,32.52,0,110,13.39,7.91,318.5
"2010-03-04 00:54:30",1731268,3.388,347.8,5.855,1.178,8.93,103.07,7.137,8.28,32.52,0,110,13.39,7.91,309.8
"2010-03-04 00:55:00",1731269,2.625,347.1,0.915,0.093,7.02,103.0636,7.12,8.21,32.52,0,110,13.42,7.90,309.1
"2010-03-04 00:55:30",1731270,2.461,347.5,1.939,0.167,7.023,103.0658,7.126,8.19,33.03,0,110,13.42,7.90,309.5
"2010-03-04 00:56:00",1731271,2.904,343.9,2.407,0.119,7.312,103.063,7.119,8.26,33.3,0,110,13.42,7.90,305.9
"2010-03-04 00:56:30",1731272,4.022,352.2,7.657,1.133,9.96,103.0688,7.133,8.28,33.3,0,110,13.39,7.91,314.2
"2010-03-04 00:57:00",1731273,2.841,355,7.513,1.031,9.8,103.07,7.137,8.44,32.94,0,110,13.4,7.91,317.0
"2010-03-04 00:57:30",1731274,4.947,4.019,5.224,0.777,12.91,103.0747,7.148,8.53,33.06,0,110,13.4,7.93,326.0
"2010-03-04 00:58:00",1731275,4.637,358.5,8.21,1.241,11.19,103.0793,7.16,8.44,33.15,0,110,13.4,7.94,320.5
"2010-03-04 00:58:30",1731276,2.967,348.8,1.687,0.196,7.533,103.0834,7.171,8.24,33.35,0,110,13.43,7.95,310.8
"2010-03-04 00:59:00",1731277,3.029,347.1,1.047,0.079,6.998,103.0834,7.171,8.19,33.96,0,110,13.43,7.95,309.1
"2010-03-04 00:59:30",1731278,3.695,353.8,7.066,1.255,9.08,103.0834,7.171,8.29,34.45,0,110,13.4,7.95,315.8
"2010-03-04 01:00:00",1731279,2.633,352.4,7.155,1.078,8.32,103.0837,7.171,8.32,34.57,0,110,13.4,7.95,314.4
"2010-03-04 01:00:30",1731280,2.913,357.4,5.842,1.412,9.16,103.0837,7.171,8.21,34.07,0,110,13.4,7.95,319.4
"2010-03-04 01:01:00",1731281,3.56,0.608,5.558,1.477,10.75,103.0837,7.171,8.41,34.59,0,110,13.4,7.95,322.6
"2010-03-04 01:01:30",1731282,4.847,3.788,5.915,0.568,12.74,103.0837,7.171,8.52,35.8,0,110,13.4,7.95,325.8
"2010-03-04 01:02:00",1731283,4.215,359.1,6.616,1.315,10.63,103.0837,7.171,8.32,35.85,0,110,13.4,7.95,321.1
"2010-03-04 01:02:30",1731284,2.496,351,2.406,0.23,7.334,103.0837,7.171,8.19,35.75,0,110,13.44,7.95,313.0
"2010-03-04 01:03:00",1731285,2.227,352.1,4.722,0.519,7.082,103.0837,7.171,8.2,35.76,0,110,13.44,7.95,314.1
"2010-03-04 01:03:30",1731286,3.517,356.4,6.582,1.613,9.42,103.0837,7.171,8.34,36.02,0,110,13.4,7.95,318.4
"2010-03-04 01:04:00",1731287,3.186,350.8,4.798,0.873,8.37,103.0837,7.171,8.26,36.18,0,110,13.4,7.95,312.8
"2010-03-04 01:04:30",1731288,4.009,354.5,6.023,1.289,9.98,103.0837,7.171,8.34,35.8,0,110,13.4,7.95,316.5
"2010-03-04 01:05:00",1731289,3.812,354,6.573,1.277,9.69,103.0837,7.171,8.33,35.88,0,110,13.4,7.95,316.0
"2010-03-04 01:05:30",1731290,4.738,358.3,5.711,1.281,11.32,103.0837,7.171,8.47,35.98,0,110,13.4,7.95,320.3
"2010-03-04 01:06:00",1731291,4.212,353.8,6.674,1.282,9.91,103.0837,7.171,8.37,36.02,0,110,13.4,7.95,315.8
"2010-03-04 01:06:30",1731292,3.506,349,4.556,0.807,8.18,103.0837,7.171,8.29,35.75,0,110,13.4,7.95,311.0
"2010-03-04 01:07:00",1731293,4.137,350.4,6.343,1.229,8.8,103.0834,7.171,8.22,35.79,0,110,13.4,7.95,312.4
"2010-03-04 01:07:30",1731294,4.814,354.4,6.418,1.215,10.98,103.0829,7.169,8.4,36.04,0,110,13.4,7.95,316.4
"2010-03-04 01:08:00",1731295,3.607,348.1,4.53,0.9,8.53,103.0795,7.161,8.32,35.93,0,110,13.4,7.94,310.1
"2010-03-04 01:08:30",1731296,3.876,348.3,5.784,1.095,8.68,103.0721,7.142,8.2,35.56,0,110,13.4,7.92,310.3
"2010-03-04 01:09:00",1731297,5.075,354.5,5.813,1.207,11.3,103.069,7.134,8.44,35.78,0,110,13.4,7.91,316.5
"2010-03-04 01:09:30",1731298,4.812,351.4,6.488,1.295,10.42,103.0679,7.131,8.36,35.65,0,110,13.4,7.91,313.4
"2010-03-04 01:10:00",1731299,3.181,341.8,0.505,0.025,7.535,103.0631,7.119,8.17,35.42,0,110,13.44,7.90,303.8
"2010-03-04 01:10:30",1731300,4.585,349.4,6.962,1.288,10.01,103.0552,7.099,8.31,35.67,0,110,13.41,7.88,311.4
"2010-03-04 01:11:00",1731301,4.074,346,6.384,1.234,9.31,103.0547,7.097,8.37,35.87,0,110,13.41,7.87,308.0
"2010-03-04 01:11:30",1731302,4.223,347.2,6.658,1.255,9.25,103.0521,7.091,8.26,35.77,0,110,13.41,7.87,309.2
"2010-03-04 01:12:00",1731303,3.377,343,3.447,0.68,7.498,103.055,7.098,8.16,35.78,0,110,13.41,7.88,305.0
"2010-03-04 01:12:30",1731304,3.455,342.5,2.446,0.658,7.756,103.0574,7.104,8.27,36.2,0,110,13.41,7.88,304.5
"2010-03-04 01:13:00",1731305,5.042,351.4,6.235,1.241,11.28,103.0612,7.114,8.41,36.77,0,110,13.41,7.89,313.4
"2010-03-04 01:13:30",1731306,4.835,350.2,6.395,1.284,10.86,103.0664,7.127,8.43,37.23,0,110,13.41,7.90,312.2
"2010-03-04 01:14:00",1731307,5.172,351.2,6.093,1.163,11.15,103.0658,7.126,8.32,37.74,0,110,13.41,7.90,313.2
"2010-03-04 01:14:30",1731308,5.16,350.4,6.184,1.079,10.72,103.0719,7.141,8.34,38.09,0,110,13.41,7.92,312.4
"2010-03-04 01:15:00",1731309,3.464,340.5,0.565,0.037,7.261,103.0711,7.139,8.16,38.23,0,110,13.45,7.92,302.5
"2010-03-04 01:15:30",1731310,3.507,339.7,0.604,0.043,7.129,103.0763,7.153,8.16,38.33,0,110,13.44,7.93,301.7
"2010-03-04 01:16:00",1731311,4.854,345.5,6.726,1.317,9.92,103.0778,7.156,8.31,38.44,0,110,13.41,7.93,307.5
"2010-03-04 01:16:30",1731312,4.028,341.3,4.495,0.934,9.11,103.081,7.164,8.29,38.47,0,110,13.41,7.94,303.3
"2010-03-04 01:17:00",1731313,5.646,348,5.85,1.12,11.88,103.083,7.17,8.37,38.65,0,110,13.41,7.95,310.0
"2010-03-04 01:17:30",1731314,5.643,348.1,5.75,1.107,11.69,103.0816,7.166,8.45,38.79,0,110,13.41,7.94,310.1
"2010-03-04 01:18:00",1731315,5.406,345.2,6.205,1.22,10.41,103.0833,7.171,8.29,38.66,0,110,13.41,7.95,307.2
"2010-03-04 01:18:30",1731316,3.823,338.1,0.362,0.042,7.215,103.0814,7.165,8.15,38.62,0,110,13.45,7.94,300.1
"2010-03-04 01:19:00",1731317,4.362,340.3,5.636,1.017,8.2,103.0794,7.16,8.14,38.85,0,110,13.41,7.94,302.3
"2010-03-04 01:19:30",1731318,3.948,340.8,2.501,0.692,8.04,103.0751,7.15,8.23,39.16,0,110,13.41,7.93,302.8
"2010-03-04 01:20:00",1731319,5.086,346.9,6.82,1.293,10.34,103.0715,7.14,8.24,39.17,0,110,13.41,7.92,308.9
"2010-03-04 01:20:30",1731320,5.793,350,5.031,1.06,11.92,103.065,7.124,8.44,39.33,0,110.1,13.41,7.90,312.0
"2010-03-04 01:21:00",1731321,5.666,348.2,6.026,1.151,11.34,103.065,7.124,8.4,39.58,0,110,13.41,7.90,310.2
"2010-03-04 01:21:30",1731322,5.328,346.5,6.44,1.282,10.43,103.0573,7.104,8.31,39.75,0,110,13.41,7.88,308.5
"2010-03-04 01:22:00",1731323,3.81,338.3,0.806,0.05,6.999,103.0573,7.104,8.13,39.76,0,110,13.44,7.88,300.3
"2010-03-04 01:22:30",1731324,4.595,342.2,6.02,1.173,8.33,103.0548,7.098,8.15,40.24,0,110,13.41,7.87,304.2
"2010-03-04 01:23:00",1731325,3.926,341.1,4.968,0.771,8.56,103.054,7.095,8.3,40.6,0,109.9,13.41,7.87,303.1
"2010-03-04 01:23:30",1731326,5.098,347.2,7.03,1.303,10.59,103.0517,7.09,8.22,40.47,0,110,13.41,7.87,309.2
"2010-03-04 01:24:00",1731327,5.912,351.5,5.036,0.713,12.46,103.0517,7.09,8.47,40.89,0,110,13.41,7.87,313.5
"2010-03-04 01:24:30",1731328,5.598,351.8,5.457,0.976,11.52,103.0511,7.088,8.43,40.94,0,110,13.41,7.87,313.8
"2010-03-04 01:25:00",1731329,3.426,342.3,0.566,0.026,7.301,103.0508,7.088,8.15,40.76,0,110,13.44,7.86,304.3
"2010-03-04 01:25:30",1731330,3.457,342.7,0.423,0.034,6.983,103.0508,7.088,8.13,41,0,110,13.45,7.86,304.7
"2010-03-04 01:26:00",1731331,3.636,343.5,4.238,0.663,7.95,103.0511,7.088,8.28,41.6,0,110,13.42,7.87,305.5
"2010-03-04 01:26:30",1731332,4.468,347.8,6.54,1.306,9.46,103.0508,7.088,8.17,42.29,0,110,13.42,7.86,309.8
"2010-03-04 01:27:00",1731333,4.832,350.4,6.904,1.273,10.91,103.0508,7.088,8.36,43.2,0,110,13.42,7.86,312.4
"2010-03-04 01:27:30",1731334,5.551,353.9,4.866,0.931,12.04,103.0508,7.088,8.47,43.77,0,110,13.42,7.86,315.9
"2010-03-04 01:28:00",1731335,5.302,355.8,5.199,1.103,11.21,103.0508,7.088,8.35,43.93,0,110,13.42,7.86,317.8
"2010-03-04 01:28:30",1731336,3.459,345.9,0.523,0.055,7.011,103.0508,7.088,8.21,43.9,0,110,13.45,7.86,307.9
"2010-03-04 01:29:00",1731337,3.565,344.8,0.819,0.042,6.757,103.0508,7.088,8.15,44.14,0,110,13.45,7.86,306.8
"2010-03-04 01:29:30",1731338,3.395,346.1,0.767,0.048,7.351,103.0508,7.088,8.15,44.4,0,110,13.46,7.86,308.1
"2010-03-04 01:30:00",1731339,4.725,353,6.551,1.298,10.31,103.0508,7.088,8.32,44.66,0,110,13.43,7.86,315.0
"2010-03-04 01:30:30",1731340,5.296,356.4,6.317,1.123,11.62,103.0508,7.088,8.33,44.76,0,110,13.43,7.86,318.4
"2010-03-04 01:31:00",1731341,5.058,355.5,6.527,1.2,11.52,103.0508,7.088,8.4,44.88,0,109.9,13.43,7.86,317.5
"2010-03-04 01:31:30",1731342,5.478,356.9,5.465,0.996,11.18,103.0511,7.088,8.32,44.88,0,110,13.43,7.87,318.9
"2010-03-04 01:32:00",1731343,3.351,345.1,1.17,0.04,7.018,103.0508,7.088,8.22,44.04,0,110,13.46,7.86,307.1
"2010-03-04 01:32:30",1731344,3.358,345.6,0.626,0.059,7.066,103.0508,7.088,8.15,43.68,0,110,13.46,7.86,307.6
"2010-03-04 01:33:00",1731345,4.085,348.5,6.038,1.155,8.79,103.0508,7.088,8.16,43.32,0,110,13.43,7.86,310.5
"2010-03-04 01:33:30",1731346,4.457,351.2,6.866,1.278,9.86,103.0511,7.088,8.24,43.57,0,110,13.43,7.87,313.2
"2010-03-04 01:34:00",1731347,5.457,357.9,5.502,0.921,12.45,103.0511,7.088,8.48,44.44,0,110,13.43,7.87,319.9
"2010-03-04 01:34:30",1731348,4.304,350.1,6.553,1.276,10,103.0508,7.088,8.27,43.86,0,110,13.43,7.86,312.1
"2010-03-04 01:35:00",1731349,4.007,347.3,6.398,1.222,8.9,103.0517,7.09,8.17,41.33,0,110,13.43,7.87,309.3
"2010-03-04 01:35:30",1731350,3.719,345.6,6.329,1.081,8.7,103.0511,7.088,8.3,40.5,0,110,13.43,7.87,307.6
"2010-03-04 01:36:00",1731351,3.595,346.1,4.909,1.108,8.1,103.0517,7.09,8.13,40.43,0,110,13.43,7.87,308.1
"2010-03-04 01:36:30",1731352,2.871,345.6,1.807,0.075,7.649,103.0511,7.088,8.13,37.75,0,110,13.46,7.87,307.6
"2010-03-04 01:37:00",1731353,4.211,352.9,6.908,1.228,10.79,103.0529,7.093,8.36,35.19,0,110,13.43,7.87,314.9
"2010-03-04 01:37:30",1731354,4.966,355.4,5.267,1.048,12.5,103.052,7.091,8.41,33.76,0,110,13.43,7.87,317.4
"2010-03-04 01:38:00",1731355,3.962,348.5,5.995,1.258,10.58,103.0529,7.093,8.33,33.44,0,110,13.43,7.87,310.5
"2010-03-04 01:38:30",1731356,3.79,349.2,7.402,1.185,9.33,103.0511,7.088,8.17,32.58,0,110,13.42,7.87,311.2
"2010-03-04 01:39:00",1731357,2.942,343.2,1.151,0.07,7.386,103.0529,7.093,8.18,32.53,0,110,13.45,7.87,305.2
"2010-03-04 01:39:30",1731358,3.973,347.7,6.057,1.29,9.79,103.0518,7.09,8.21,32.31,0,110,13.43,7.87,309.7
"2010-03-04 01:40:00",1731359,2.874,342.5,0.776,0.051,7.838,103.0524,7.091,8.14,31.63,0,110,13.46,7.87,304.5
"2010-03-04 01:40:30",1731360,4.086,349.6,6.541,1.304,10.06,103.0526,7.092,8.23,31.53,0,110,13.43,7.87,311.6
"2010-03-04 01:41:00",1731361,4.761,353.4,5.909,1.166,12.47,103.0549,7.098,8.38,31.55,0,110,13.43,7.87,315.4
"2010-03-04 01:41:30",1731362,4.063,350.8,6.302,1.308,10.76,103.0555,7.1,8.21,31.28,0,110,13.43,7.88,312.8
"2010-03-04 01:42:00",1731363,3.85,350.5,6.501,1.308,9.88,103.0564,7.102,8.26,31.19,0,110,13.43,7.88,312.5
"2010-03-04 01:42:30",1731364,2.751,344,1.271,0.039,7.258,103.0578,7.105,8.11,31.02,0,110,13.47,7.88,306.0
"2010-03-04 01:43:00",1731365,2.844,340,2.001,0.062,7.226,103.0578,7.105,8.15,31.29,0,110,13.47,7.88,302.0
"2010-03-04 01:43:30",1731366,4.213,341.6,6.543,1.268,9.85,103.0581,7.106,8.23,32.45,0,110,13.43,7.88,303.6
"2010-03-04 01:44:00",1731367,4.121,343.4,6.806,1.299,10.56,103.0578,7.105,8.32,34.58,0,110,13.43,7.88,305.4
"2010-03-04 01:44:30",1731368,4.66,345.8,6.604,1.262,11.26,103.0599,7.111,8.37,36.67,0,110,13.43,7.89,307.8
"2010-03-04 01:45:00",1731369,4.651,349.5,6.423,1.226,11.27,103.0599,7.111,8.34,38.11,0,110,13.43,7.89,311.5
"2010-03-04 01:45:30",1731370,3.886,347.3,7.311,1.219,9.33,103.0602,7.111,8.26,38.76,0,110,13.43,7.89,309.3
"2010-03-04 01:46:00",1731371,2.992,344.9,1.324,0.061,7.121,103.0613,7.114,8.14,38.92,0,110,13.47,7.89,306.9
"2010-03-04 01:46:30",1731372,3.016,347.2,0.654,0.046,7.334,103.0616,7.115,8.14,38.81,0,110,13.47,7.89,309.2
"2010-03-04 01:47:00",1731373,4.659,356.8,6.757,1.235,10.68,103.0636,7.12,8.21,38.54,0,110,13.43,7.90,318.8
"2010-03-04 01:47:30",1731374,4.556,356.6,6.896,1.21,10.92,103.0648,7.123,8.35,38.44,0,110,13.44,7.90,318.6
"2010-03-04 01:48:00",1731375,4.477,357,7.119,1.275,11.17,103.0639,7.121,8.42,38.22,0,110,13.44,7.90,319.0
"2010-03-04 01:48:30",1731376,4.741,0.161,6.169,1.124,11.72,103.0651,7.124,8.39,38.27,0,110,13.43,7.90,322.2
"2010-03-04 01:49:00",1731377,3.999,357.3,7.252,1.273,10.03,103.068,7.131,8.3,38.18,0,110,13.43,7.91,319.3
"2010-03-04 01:49:30",1731378,2.798,350.1,1.039,0.114,7.136,103.0689,7.134,8.16,37.89,0,110,13.47,7.91,312.1
"2010-03-04 01:50:00",1731379,2.957,348.8,0.86,0.103,7.171,103.0718,7.141,8.16,37.76,0,110,13.47,7.92,310.8